(171100) = 2003 XL33 = 2005 EH263

Discovered at Kitt Peak on 2005-03-13 by Spacewatch.

Orbit

Orbit type: Main Belt

Note: WebGL enabled browser required.

epoch2023-09-13.0
epoch JD2460200.5
perihelion date2022-05-19.68955
perihelion JD2459719.18955
argument of perihelion (°)338.19274
ascending node (°)241.48017
inclination (°)1.08900
eccentricity0.0430349
perihelion distance (AU)2.4853864
Tisserand w.r.t. Jupiter3.4
ΔV w.r.t. Earth (km/sec)9.8
semimajor axis (AU)2.5971547
mean anomaly (°)113.33979
mean daily motion (°/day)0.23548170
aphelion distance (AU)2.709
period (years)4.19
P-vector [x]-0.76964253
P-vector [y]-0.58294516
P-vector [z]-0.26043295
Q-vector [x]0.63825662
Q-vector [y]-0.71313282
Q-vector [z]-0.28994838
absolute magnitude16.37
phase slope0.15
uncertainty0
referenceMPO 778098
observations used532
oppositions17
arc length (days)8703
first opposition used2000
last opposition used2023
residual rms (arc-secs)0.71
perturbers coarse indicatorM-v
perturbers precise indicator003Ek
first observation date used2000-01-11.0
last observation date used2023-11-09.0
computer nameMPCLINUX
JD of orbit computation2455872.659737
perihelion JD uncertainty (days)2.9187E-04
argument of perihelion uncertainty (°)2.9404E-04
ascending node uncertainty (°)2.8665E-04
inclination uncertainty (°)6.4736E-06
eccentricity uncertainty 8.0811E-08
perihelion distance uncertainty (AU)2.0268E-07
Minimum Orbit Intersection Distances (in AU)
for orbit epoch: 2460200.5, reference: E2023-VG7
Mercury2.02972
Venus1.76288
Earth1.47593
Mars0.86143
Jupiter2.25335
Saturn6.37779
Uranus15.9121
Neptune27.1331

Observations

544 total observations over interval: 2000 01 11.26447 – 2023 11 09.138769
These data are available for download (format description).

Date (UT) J2000 RA J2000 Dec Magn Location Ref
2000 01 11.26447 05 36 21.44 +22 27 19.7 20.3 V 691 – Steward Observatory, Kitt Peak-Spacewatch MPS 178507
2000 01 11.28710 05 36 20.30 +22 27 18.4 19.2 V 691 – Steward Observatory, Kitt Peak-Spacewatch MPS 178507
2000 01 11.30971 05 36 19.18 +22 27 17.5 19.8 V 691 – Steward Observatory, Kitt Peak-Spacewatch MPS 178507
2002 08 11.26858 22 01 41.34 -10 13 48.1 18.2 R 807 – Cerro Tololo Observatory, La Serena MPS 178507
2002 08 11.31383 22 01 38.94 -10 14 00.1   807 – Cerro Tololo Observatory, La Serena MPS 178507
2003 11 24.36321 04 41 10.43 +22 01 12.9 20.6 V 691 – Steward Observatory, Kitt Peak-Spacewatch MPS 130837
2003 11 24.39113 04 41 08.73 +22 01 09.1 20.6 V 691 – Steward Observatory, Kitt Peak-Spacewatch MPS 130837
2003 11 24.44036 04 41 05.75 +22 01 02.1 20.3 V 691 – Steward Observatory, Kitt Peak-Spacewatch MPS 130837
2003 12 01.35924 04 34 07.98 +21 44 35.1 20.3 V 291 – LPL/Spacewatch II MPS 109890
2003 12 01.38385 04 34 06.42 +21 44 31.4 19.9 V 291 – LPL/Spacewatch II MPS 109890
2003 12 01.41492 04 34 04.47 +21 44 26.5 19.9 V 291 – LPL/Spacewatch II MPS 109890
2003 12 17.14530 04 18 44.34 +21 04 25.1 20.5 V 291 – LPL/Spacewatch II MPS 109890
2003 12 17.17085 04 18 42.89 +21 04 22.0 21.4 V 291 – LPL/Spacewatch II MPS 109890
2003 12 17.19540 04 18 41.57 +21 04 18.2 20.7 V 291 – LPL/Spacewatch II MPS 109890
2005 03 01.38279 12 19 39.49 -03 49 52.7 20.2 V 691 – Steward Observatory, Kitt Peak-Spacewatch MPS 130837
2005 03 01.40885 12 19 38.47 -03 49 46.3 20.0 V 691 – Steward Observatory, Kitt Peak-Spacewatch MPS 130837
2005 03 01.43430 12 19 37.43 -03 49 40.4 20.2 V 691 – Steward Observatory, Kitt Peak-Spacewatch MPS 130837
2005 03 13.26539 12 10 58.17 -02 54 25.0 19.6 V 691 – Steward Observatory, Kitt Peak-Spacewatch MPS 129384
2005 03 13.29398 12 10 56.66 -02 54 16.3 19.5   703 – Catalina Sky Survey MPS 130088
2005 03 13.30018 12 10 56.40 -02 54 13.8 19.6 V 691 – Steward Observatory, Kitt Peak-Spacewatch MPS 129384
2005 03 13.30348 12 10 56.24 -02 54 13.2 19.0   703 – Catalina Sky Survey MPS 130088
2005 03 13.31295 12 10 55.86 -02 54 10.5 19.2   703 – Catalina Sky Survey MPS 130088
2005 03 13.32245 12 10 55.27 -02 54 05.8 19.5   703 – Catalina Sky Survey MPS 130088
2005 03 13.32793 12 10 54.99 -02 54 04.9 19.6 V 691 – Steward Observatory, Kitt Peak-Spacewatch MPS 129384
2005 03 17.24041 12 07 39.93 -02 32 36.8 21.1 V 691 – Steward Observatory, Kitt Peak-Spacewatch MPS 129384
2005 03 17.27161 12 07 38.34 -02 32 27.1 19.9 V 691 – Steward Observatory, Kitt Peak-Spacewatch MPS 129384
2005 03 17.29723 12 07 36.97 -02 32 18.1 19.9 V 691 – Steward Observatory, Kitt Peak-Spacewatch MPS 129384
2005 04 04.29903 11 52 35.22 -00 49 02.8 19.3 R 703 – Catalina Sky Survey MPS 130837
2005 04 04.30710 11 52 34.86 -00 48 59.2 19.7 R 703 – Catalina Sky Survey MPS 130837
2005 04 04.31523 11 52 34.46 -00 48 57.4 19.3 R 703 – Catalina Sky Survey MPS 130837
2005 04 04.32336 11 52 34.06 -00 48 54.2 20.2 R 703 – Catalina Sky Survey MPS 130837
2005 04 05.29583 11 51 49.83 -00 43 37.8 19.4 R G96 – Mt. Lemmon Survey MPS 130837
2005 04 05.30177 11 51 49.53 -00 43 35.7 19.2 R G96 – Mt. Lemmon Survey MPS 130837
2005 04 05.30772 11 51 49.26 -00 43 34.1 19.3 R G96 – Mt. Lemmon Survey MPS 130837
2005 04 05.31365 11 51 49.01 -00 43 32.2 19.0 R G96 – Mt. Lemmon Survey MPS 130837
2006 06 20.40387 20 57 55.12 -15 49 42.6 20.6 V 691 – Steward Observatory, Kitt Peak-Spacewatch MPS 173922
2006 06 20.42128 20 57 54.80 -15 49 43.1 20.7 V 691 – Steward Observatory, Kitt Peak-Spacewatch MPS 173922
2006 06 20.43863 20 57 54.48 -15 49 43.1 21.2 V 691 – Steward Observatory, Kitt Peak-Spacewatch MPS 173922
2006 09 26.11616 20 06 01.72 -18 52 37.4 19.4 V G96 – Mt. Lemmon Survey MPS 181076
2006 09 26.12325 20 06 01.94 -18 52 36.4 20.4 V G96 – Mt. Lemmon Survey MPS 181076
2006 09 26.13042 20 06 02.12 -18 52 35.7 20.4 V G96 – Mt. Lemmon Survey MPS 181076
2006 09 26.13759 20 06 02.19 -18 52 35.5 20.3 V G96 – Mt. Lemmon Survey MPS 181076
2007 10 19.41929 03 35 02.92 +19 44 47.4 20.1 V 691 – Steward Observatory, Kitt Peak-Spacewatch MPS 222527
2007 10 19.43704 03 35 02.15 +19 44 44.2 20.0 V 691 – Steward Observatory, Kitt Peak-Spacewatch MPS 222527
2007 10 19.45477 03 35 01.40 +19 44 41.3 20.0 V 691 – Steward Observatory, Kitt Peak-Spacewatch MPS 222527
2007 10 30.29646 03 26 48.62 +19 12 43.1 20.0 V 691 – Steward Observatory, Kitt Peak-Spacewatch MPS 223460
2007 10 30.31409 03 26 47.69 +19 12 39.8 20.0 V 691 – Steward Observatory, Kitt Peak-Spacewatch MPS 223460
2007 10 30.33172 03 26 46.73 +19 12 36.3 20.1 V 691 – Steward Observatory, Kitt Peak-Spacewatch MPS 223460
2007 10 30.36403 03 26 45.06 +19 12 28.8 19.9 V G96 – Mt. Lemmon Survey MPS 223460
2007 10 30.37793 03 26 44.30 +19 12 26.1 20.1 V G96 – Mt. Lemmon Survey MPS 223460
2007 10 30.39178 03 26 43.58 +19 12 23.3 19.9 V G96 – Mt. Lemmon Survey MPS 223460
2007 10 30.40569 03 26 42.82 +19 12 20.3 19.9 V G96 – Mt. Lemmon Survey MPS 223460
2007 11 03.24350 03 23 19.51 +18 58 41.7 20.0 V 691 – Steward Observatory, Kitt Peak-Spacewatch MPS 224888
2007 11 03.26113 03 23 18.51 +18 58 37.8 20.0 V 691 – Steward Observatory, Kitt Peak-Spacewatch MPS 224888
2007 11 03.27886 03 23 17.51 +18 58 34.1 20.0 V 691 – Steward Observatory, Kitt Peak-Spacewatch MPS 224888
2007 11 07.31281 03 19 32.76 +18 43 11.4 19.8   704 – Lincoln Laboratory ETS, New Mexico MPS 224888
2007 11 07.32518 03 19 32.07 +18 43 09.0 20.4   704 – Lincoln Laboratory ETS, New Mexico MPS 224888
2007 11 07.34994 03 19 30.59 +18 43 01.9 20.7   704 – Lincoln Laboratory ETS, New Mexico MPS 224888
2007 11 07.36236 03 19 29.91 +18 42 59.5 20.7   704 – Lincoln Laboratory ETS, New Mexico MPS 224888
2007 11 11.29944 03 15 44.38 +18 27 10.0 19.8 V G96 – Mt. Lemmon Survey MPS 226875
2007 11 11.30694 03 15 43.95 +18 27 08.1 19.6 V G96 – Mt. Lemmon Survey MPS 226875
2007 11 11.31433 03 15 43.52 +18 27 06.3 19.6 V G96 – Mt. Lemmon Survey MPS 226875
2007 11 11.32179 03 15 43.05 +18 27 04.4 19.6 V G96 – Mt. Lemmon Survey MPS 226875
2007 11 13.28483 03 13 49.71 +18 19 00.2 19.4 r 699 – Lowell Observatory-LONEOS MPS 226875
2007 11 13.31043 03 13 48.23 +18 18 53.2 20.1 r 699 – Lowell Observatory-LONEOS MPS 226875
2007 11 13.33606 03 13 46.66 +18 18 46.0 20.4 r 699 – Lowell Observatory-LONEOS MPS 226875
2007 11 13.36170 03 13 45.21 +18 18 39.8 20.0 r 699 – Lowell Observatory-LONEOS MPS 226875
2007 11 14.15043 03 12 59.89 +18 15 23.5 19.7 V 691 – Steward Observatory, Kitt Peak-Spacewatch MPS 226875
2007 11 14.16805 03 12 58.84 +18 15 19.5 19.6 V 691 – Steward Observatory, Kitt Peak-Spacewatch MPS 226875
2007 11 14.18567 03 12 57.80 +18 15 14.7 19.6 V 691 – Steward Observatory, Kitt Peak-Spacewatch MPS 226875
2007 11 15.25985 03 11 55.74 +18 10 47.0 19.7   704 – Lincoln Laboratory ETS, New Mexico MPS 226875
2007 11 15.27265 03 11 54.94 +18 10 43.0 20.0   704 – Lincoln Laboratory ETS, New Mexico MPS 226875
2007 11 15.28539 03 11 54.22 +18 10 40.6 20.0   704 – Lincoln Laboratory ETS, New Mexico MPS 226875
2007 11 15.29828 03 11 53.50 +18 10 37.2 20.1   704 – Lincoln Laboratory ETS, New Mexico MPS 226875
2007 11 15.31099 03 11 52.71 +18 10 34.0 20.2   704 – Lincoln Laboratory ETS, New Mexico MPS 226875
2007 11 18.13556 03 09 11.32 +17 58 43.0   691 – Steward Observatory, Kitt Peak-Spacewatch MPS 228286
2007 11 18.15063 03 09 10.44 +17 58 39.5   691 – Steward Observatory, Kitt Peak-Spacewatch MPS 228286
2007 11 18.16568 03 09 09.56 +17 58 35.9   691 – Steward Observatory, Kitt Peak-Spacewatch MPS 228286
2007 12 05.19432 02 54 46.85 +16 51 39.4 20.2   704 – Lincoln Laboratory ETS, New Mexico MPS 230882
2007 12 05.20699 02 54 46.35 +16 51 36.2 20.3   704 – Lincoln Laboratory ETS, New Mexico MPS 230882
2007 12 05.21968 02 54 45.75 +16 51 33.9 20.6   704 – Lincoln Laboratory ETS, New Mexico MPS 230882
2007 12 05.23246 02 54 45.23 +16 51 31.7 20.3   704 – Lincoln Laboratory ETS, New Mexico MPS 230882
2007 12 05.24585 02 54 44.66 +16 51 29.3 20.2   704 – Lincoln Laboratory ETS, New Mexico MPS 230882
2007 12 18.11976 02 47 45.51 +16 15 31.4   291 – LPL/Spacewatch II MPS 232514
2007 12 18.12732 02 47 45.34 +16 15 30.5   291 – LPL/Spacewatch II MPS 232514
